Regional Weather Roundup
Issued by NWS Binghamton, NY

Home | Current Version | Previous Version | Text Only | Print | Product List | Glossary On
Versions: 1 2 3 4 5 6 7 8 9 10 11 12 13 14 15 16 17 18 19 20 21 22 23 24 25 26 27 28 29 30 31 32 33 34 35 36 37 38 39 40 41 42 43 44 45 46 47 48 49 50
000
ASUS41 KBGM 230510
RWRBGM

REGIONAL WEATHER ROUNDUP
NATIONAL WEATHER SERVICE BINGHAMTON NY
100 AM EDT WED AUG 23 2017

Note: "fair" indicates few or no clouds below 12,000 feet with no
significant weather and/or obstructions to visibility.

* = Station(s) that does not report precipitation, such as rain,
snow, etc, also no thunder or fog.

NYZ009-015>018-022>025-036-037-044>046-055>057-062-230600
...Central New York...

CITY           SKY/WX    TMP DP  RH WIND       PRES   REMARKS
Binghamton     LGT RAIN  65  65 100 W8        29.80R FOG
Cortland       RAIN      64  64 100 W6        29.80R
Dansville      CLOUDY    63  58  83 NW6       29.83R
Elmira         RAIN      69  56  62 W9        29.79R
Seneca Falls   CLOUDY    66  61  82 NW6G16    29.79R
Ithaca         CLOUDY    65  63  93 W8        29.81R
Hamilton       MOCLDY    64  61  88 NW6       29.77R
Hornell        PTCLDY    61  57  88 N3        29.87R
Monticello     PTCLDY    68  67  96 W6        29.82R
Oneonta        PTCLDY    66 N/A N/A W9        29.78S
Penn Yan       CLOUDY    66  58  75 W8G20     29.80R
Rome           CLOUDY    69  66  90 W9        29.73R
Sidney         DRIZZLE   68  68 100 W5        29.77R
Syracuse       CLOUDY    67  66  97 W10       29.74R
$$

PAZ038>040-043-044-047-048-072-230600
...Northeast Pennsylvania...

CITY           SKY/WX    TMP DP  RH WIND       PRES   REMARKS
Hazleton         N/A     70  64  83 W5        29.87F
Scranton       MOCLDY    72  70  93 SW7       29.81R THUNDER
$$
&&
KEY
WCI = Wind Chill Index
VSB = Visibility
HX  = Heat Index
$$



USA.gov is the U.S. government's official web portal to all federal, state and local government web resources and services.